Regional Weather Roundup
Issued by NWS Kansas City/Pleasant Hill, MO

Home | Current Version | Previous Version | Graphics & Text | Print | Product List | Glossary Off
Versions: 1 2 3 4 5 6 7 8 9 10 11 12 13 14 15 16 17 18 19 20 21 22 23 24 25 26 27 28 29 30 31 32 33 34 35 36 37 38 39 40 41 42 43 44 45 46 47 48 49 50

000
ASUS43 KEAX 211004
RWREAX

WEATHER ROUNDUP FOR EASTERN KANSAS AND NORTHWEST MISSOURI
NATIONAL WEATHER SERVICE KANSAS CITY/PLEASANT HILL MO
500 AM CDT TUE OCT 21 2014

KSZ040-057-103>105-MOZ028-029-037-043-211100-
...KANSAS CITY METROPOLITAN AREA...

CITY           SKY/WX    TMP DP  RH WIND       PRES   REMARKS
K.C. INTL      CLEAR     46  44  93 CALM      30.09R
K.C. DOWNTOWN  CLEAR     47  45  93 CALM      30.09R
LEES SUMMIT    CLEAR     48  44  86 SW3       30.10R
OLATHE - IXD   CLEAR     46  42  86 CALM      30.10R
OLATHE - OJC   CLEAR     50  43  77 CALM      30.09R
LAWRENCE       CLEAR     36  35  96 CALM      30.10R

$$

MOZ001>008-011>017-020>025-030>033-038>040-044>046-053-054-211100-
...NORTHERN AND CENTRAL MISSOURI...

CITY           SKY/WX    TMP DP  RH WIND       PRES   REMARKS
ST. JOSEPH     PTCLDY    36  34  92 CALM      30.10R
MOSBY          SUNNY     39  39 100 CALM      30.10R
WHITEMAN AFB   CLEAR     46  42  84 CALM      30.08R
CLINTON        FOG       43  43 100 CALM      30.09R VSB 1/4
SEDALIA        CLEAR     49  42  77 CALM      30.09R
WARSAW         NOT AVBL
MARSHALL       CLEAR     45  45 100 NW5       30.09R
CHILLICOTHE      N/A     42  40  92 CALM      30.10R
MOBERLY        CLEAR     45  41  87 W3        30.08R
KIRKSVILLE     CLEAR     41  40  96 N3        30.09R

$$

MOZ041-047>049-056>058-063>065-088>090-097-211100-
...EASTERN AND SOUTHERN MISSOURI...

CITY           SKY/WX    TMP DP  RH WIND       PRES   REMARKS
ST. LOUIS INTL CLEAR     49  44  83 CALM      30.05R
SPIRIT OF STL  CLEAR     43  42  97 CALM      30.05R
COLUMBIA       CLEAR     50  43  77 W6        30.07R
JEFFERSON CITY CLEAR     43  41  93 CALM      30.07S
MEXICO         CLEAR     48  46  93 CALM      30.07R
ROLLA          CLEAR     46  41  82 SW5       30.06S
LEBANON        CLEAR     48  45  87 CALM      30.09R
OSAGE BEACH    CLEAR     43  39  87 CALM      30.08S
SPRINGFIELD    CLEAR     47  43  86 CALM      30.08S
BRANSON        FOG       50  50 100 CALM      30.10S VSB<1/4
NEVADA         CLEAR     46  46 100 CALM      30.10R FOG
JOPLIN         PTCLDY    49  49 100 S3        30.09R FOG
WEST PLAINS    CLEAR     44  41  89 CALM      30.09S

$$

IAZ060-094-KSZ022-034>040-054-083-096-NEZ052-066-093-211100-
...KANSAS...SOUTHEAST NEBRASKA AND IOWA...

CITY           SKY/WX    TMP DP  RH WIND       PRES   REMARKS
TOPEKA         FOG       42  41  96 CALM      30.10S VSB 1/2
MANHATTAN      CLEAR     40  39  97 CALM      30.10R
EMPORIA        CLEAR     46  44  93 NW3       30.09S
CHANUTE        CLEAR     49  48  97 CALM      30.08S
WICHITA        PTCLDY    54  48  80 NE5       30.07S
OMAHA          CLEAR     43  39  86 CALM      30.10R
LINCOLN        CLEAR     38  35  89 N3        30.11S
FALLS CITY     CLEAR     40  37  89 W3        30.09S
LAMONI         CLEAR     46  39  76 N3        30.09R
DES MOINES     CLEAR     46  41  82 N3        30.10R

$$




USA.gov is the U.S. government's official web portal to all federal, state and local government web resources and services.